Location: Brienzwiler
(46.7508°N, 8.1014°E)
Time: 01:31:02
(UTC+00:00)

Cosmos 2263 Rocket - Pass Details

Date: 05 July 2020
Orbit: 825 x 847 km, 71.0° (Epoch: 11 August)

Event Time Altitude Azimuth Distance (km) Brightness Sun altitude
Rises 20:25:19 0° 321° (NW) 3,372 7.8 -8.8°
Reaches altitude 10° 20:28:20 10° 305° (NW) 2,433 6.1 -9.1°
Maximum altitude 20:32:16 20° 260° (W) 1,819 4.4 -9.6°
Drops below altitude 10° 20:36:12 10° 214° (SW) 2,422 4.4 -10.0°
Sets 20:39:13 0° 198° (SSW) 3,352 5.0 -10.3°
